Powrót do katalogu

STARLINK-5742

AktywnyŁącznośćVLEO
NORAD 55583·PAYLOAD·🇺🇸 United States

Wystrzelony Feb 12, 2023 z Cape Canaveral Space Force Station

Loading…

Następne Przeloty (najbliższe 24 godziny)

TLE

ŚwieżeSource: CelesTrak SupGP

Epoka: Sep 15, 2026, 02:04 UTC

1 55583C 23020Q   26258.08659722 -.00023814  00000+0 -86301-3 0  2583
2 55583  43.0025  15.2482 0001479 267.5709  53.7392 15.27572286    16

Śledź STARLINK-5742 w czasie rzeczywistym z AllMySat

Download on the App Store